Home > Weather > Pullman > Past weeks

Flag for USA Past Weather in Pullman, Washington, USA — Yesterday and Last 2 Weeks

Now
65 °F

Clear.


Feels Like: 65 °F
Forecast: 60 / 84 °F
Wind: No wind

Location: Pullman / Moscow Regional Airport

Current Time: Aug 26, 2016 at 10:06:19 PM

Latest Report: Aug 26, 2016 at 8:53 PM


Visibility: 10 mi

Pressure: 29.87 "Hg (27.46 "Hg at 715m altitude)

Humidity: 34%

Dew Point: 36 °F

Location of PullmanLocation

Past Weather in Pullman — Graph

°F

Pullman Temperature Yesterday

Maximum temperature yesterday: 82 °F (at 1:53 PM)
Minimum temperature yesterday: 44 °F (at 5:53 AM)
Average temperature yesterday: 66 °F

High & Low Weather Summary for the Past Weeks

 TemperatureHumidityPressure
High92 °F (Aug 14, 2:53 PM)77% (Aug 12, 1:53 AM)30.23 "Hg (Aug 12, 1:53 AM)
Low40 °F (Aug 23, 4:53 AM)9% (Aug 21, 5:53 PM)29.71 "Hg (Aug 21, 6:53 PM)
Average69 °F37%30.00 "Hg
* Reported Aug 11 8:53 PM — Aug 26 8:53 PM, Pullman, Weather by CustomWeather, © 2016

Note: Actual official high and low records may vary slightly from our data, if they occured in-between our weather recording intervals... More about our weather records

Advertising

Pullman Weather History for the Previous 24 Hours

Scroll right to see more
 ConditionsComfort  
Time TempWeatherWind HumidityBarometerVisibility
8:53 PM
Fri, Aug 26
65 °FClear.No wind34%29.87 "Hg10 mi
7:53 PM74 °FSunny.3 mph25%29.86 "Hg10 mi
6:53 PM80 °FSunny.8 mph20%29.87 "Hg10 mi
5:53 PM82 °FSunny.8 mph19%29.88 "Hg10 mi
4:53 PM83 °FSunny.5 mph18%29.89 "Hg10 mi
3:53 PM84 °FSunny.7 mph17%29.91 "Hg10 mi
2:53 PM84 °FSunny.9 mph18%29.92 "Hg10 mi
1:53 PM83 °FSunny.3 mph18%29.94 "Hg10 mi
12:53 PM82 °FSunny.7 mph19%29.96 "Hg10 mi
11:53 AM80 °FSunny.3 mph18%29.97 "Hg10 mi
10:53 AM78 °FPassing clouds.6 mph21%29.98 "Hg8 mi
9:53 AM75 °FSunny.7 mph22%29.98 "Hg9 mi
8:53 AM71 °FSunny.7 mph28%29.99 "Hg8 mi
8:03 AM64 °FHaze.No wind34%30.05 "Hg3 mi
7:53 AM63 °FScattered clouds.6 mph37%30.01 "Hg1 mi
6:53 AM51 °FClear.No wind52%30.01 "Hg6 mi
5:53 AM49 °FClear.No wind57%30.00 "Hg10 mi
4:53 AM51 °FClear.No wind50%29.99 "Hg10 mi
3:53 AM50 °FClear.No wind54%30.00 "Hg10 mi
2:53 AM51 °FClear.No wind50%30.00 "Hg10 mi
1:53 AM52 °FClear.No wind49%30.01 "Hg10 mi
12:53 AM53 °FClear.No wind45%30.02 "Hg10 mi
11:53 PM
Thu, Aug 25
55 °FClear.No wind44%30.01 "Hg10 mi
10:53 PM61 °FClear.No wind36%30.02 "Hg10 mi
Weather by CustomWeather, © 2016

See weather overviewHow to use our weather pages